Flag for U.S.A. Weather past 2 weeks in Las Cruces, New Mexico, U.S.A.

Now
35 °F

Overcast.


Feels Like: 30 °F
Forecast: 25 / 44 °F
Wind: 6 mph from Southwest

Location: Las Cruces International

Current Time: Dec 26, 2014 at 10:12:40 PM

Latest Report: Dec 26, 2014 at 9:55 PM


Visibility: 10 mi

Pressure: 30.03 "Hg

Humidity: 71%

Dew point: 27 °F

Location of Las CrucesLocation

Historic Weather in Las Cruces — Graph

°F

Las Cruces temperature yesterday

Maximum temperature yesterday: 65 °F (at 3:55 PM)
Minimum temperature yesterday: 30 °F (at 12:15 AM)
Average temperature yesterday: 44 °F

Past Weeks' High & Low Weather Summary

 TemperatureHumidityPressure
High68 °F (Dec 12, 3:35 PM)98% (Dec 19, 2:15 AM)30.27 "Hg (Dec 19, 2:15 AM)
Low21 °F (Dec 24, 7:15 AM)13% (Dec 25, 1:35 PM)29.67 "Hg (Dec 25, 3:55 PM)
Average44 °F55%30.05 "Hg
* Reported Dec 11 9:15 PM — Dec 26 9:15 PM, Las Cruces, Weather by CustomWeather, © 2014

Note: Actual official high and low records may vary slightly from our data, if they occured in-between our weather recording intervals... More about our weather records

Advertising

Las Cruces weather history for previous 24 hours

 ConditionsComfort  
Time TempWeatherWind HumidityBarometerVisibility
9:15 PM
Dec 26
37 °FOvercast.6 mph50%30.02 "Hg10 mi
8:35 PM37 °FOvercast.10 mph53%30.01 "Hg10 mi
8:15 PM37 °FOvercast.6 mph57%30.01 "Hg10 mi
7:55 PM36 °FOvercast.7 mph55%30.02 "Hg10 mi
7:35 PM34 °FPassing clouds.5 mph58%30.01 "Hg10 mi
7:15 PM35 °FClear.No wind52%29.99 "Hg10 mi
6:55 PM36 °FClear.No wind48%29.99 "Hg10 mi
6:15 PM38 °FClear.7 mph44%29.96 "Hg10 mi
5:55 PM40 °FPassing clouds.12 mph37%29.96 "Hg10 mi
5:35 PM41 °FPartly cloudy.12 mph39%29.95 "Hg10 mi
5:15 PM42 °FPassing clouds.10 mph36%29.93 "Hg10 mi
4:55 PM43 °FBroken clouds.13 mph40%29.92 "Hg10 mi
4:35 PM44 °FPartly sunny.14 mph41%29.92 "Hg10 mi
4:15 PM45 °FOvercast.14 mph41%29.91 "Hg10 mi
3:55 PM44 °FOvercast.12 mph43%29.91 "Hg10 mi
3:35 PM43 °FOvercast.5 mph54%29.90 "Hg10 mi
3:15 PM41 °FOvercast.8 mph59%29.91 "Hg10 mi
2:55 PM41 °FMostly cloudy.7 mph62%29.90 "Hg10 mi
2:15 PM41 °FOvercast.10 mph61%29.90 "Hg10 mi
1:55 PM41 °FOvercast.10 mph60%29.90 "Hg10 mi
1:35 PM40 °FOvercast.13 mph56%29.90 "Hg10 mi
1:15 PM40 °FOvercast.10 mph55%29.90 "Hg10 mi
12:55 PM40 °FOvercast.16 mph57%29.92 "Hg10 mi
12:35 PM40 °FOvercast.12 mph65%29.92 "Hg10 mi
12:15 PM39 °FOvercast.13 mph69%29.93 "Hg10 mi
11:55 AM38 °FOvercast.12 mph71%29.94 "Hg10 mi
11:15 AM37 °FOvercast.10 mph81%29.95 "Hg10 mi
10:55 AM37 °FOvercast.9 mph84%29.95 "Hg10 mi
10:35 AM37 °FOvercast.8 mph84%29.95 "Hg10 mi
10:15 AM37 °FOvercast.8 mph85%29.96 "Hg10 mi
9:55 AM37 °FOvercast.10 mph84%29.95 "Hg10 mi
9:15 AM35 °FOvercast.9 mph92%29.95 "Hg10 mi
8:55 AM34 °FOvercast.8 mph94%29.93 "Hg10 mi
8:15 AM33 °FBroken clouds.7 mph97%29.91 "Hg10 mi
7:55 AM33 °FMostly cloudy.8 mph97%29.90 "Hg10 mi
7:35 AM33 °FMore clouds than sun.8 mph97%29.89 "Hg10 mi
7:15 AM33 °FMostly cloudy.8 mph98%29.88 "Hg10 mi
6:55 AM33 °FLight snow. Overcast.9 mph98%29.87 "Hg10 mi
6:35 AM33 °FLight snow. Mostly cloudy.8 mph98%29.86 "Hg2 mi
6:15 AM33 °FLight snow. Overcast.7 mph98%29.86 "Hg2 mi
5:55 AM32 °FLight snow. Mostly cloudy.8 mph98%29.85 "Hg2 mi
5:35 AM32 °FLight snow. Overcast.7 mph98%29.84 "Hg2 mi
5:15 AM32 °FLight snow. Overcast.9 mph98%29.84 "Hg1 mi
4:55 AM33 °FLight snow. Overcast.10 mph98%29.83 "Hg4 mi
4:15 AM33 °FLight rain. Mostly cloudy.15 mph96%29.82 "Hg2 mi
3:55 AM34 °FRain. Overcast.14 mph95%29.82 "Hg4 mi
3:35 AM36 °FRain. Mostly cloudy.16 mph92%29.82 "Hg5 mi
3:15 AM37 °FLight rain. Overcast.15 mph92%29.80 "Hg5 mi
2:55 AM39 °FDrizzle. Mostly cloudy.16 mph86%29.80 "Hg10 mi
2:35 AM42 °FDrizzle. Overcast.26 mph74%29.80 "Hg10 mi
2:15 AM43 °FOvercast.18 mph66%29.78 "Hg10 mi
1:55 AM44 °FPartly cloudy.13 mph62%29.77 "Hg10 mi
1:15 AM46 °FPassing clouds.16 mph44%29.76 "Hg10 mi
12:55 AM48 °FPassing clouds.15 mph36%29.75 "Hg10 mi
12:15 AM46 °FOvercast.10 mph38%29.74 "Hg10 mi
11:55 PM
Dec 25
45 °FPassing clouds.7 mph40%29.75 "Hg10 mi
11:15 PM42 °FClear.6 mph44%29.75 "Hg10 mi
10:55 PM46 °FPassing clouds.10 mph38%29.76 "Hg10 mi
10:35 PM45 °FPassing clouds.9 mph39%29.76 "Hg10 mi
10:15 PM46 °FClear.8 mph37%29.76 "Hg10 mi
Weather by CustomWeather, © 2014

See weather overviewHow to use our weather pages